This is the latest recevied weather packets stored in our database for station/object EA3CO-11. If no packets are shown the sender has not sent any weather packets the latest 10 day(s).
| Time | Temp. | Humidity | Pressure | Rain* | Wind** | Luminosity | Snow |
|---|---|---|---|---|---|---|---|
| 1777946557 | 12.22° C | 92% | 1014.1 hPa | - | - | - | - |
| 1777945657 | 12.78° C | 92% | 1014 hPa | - | - | - | - |
| 1777944757 | 12.78° C | 93% | 1014.1 hPa | - | - | - | - |
| 1777943857 | 12.78° C | 94% | 1014 hPa | - | - | - | - |
| 1777942957 | 12.22° C | 93% | 1014.1 hPa | - | - | - | - |
| 1777942057 | 12.78° C | 94% | 1014.2 hPa | - | - | - | - |
| 1777941156 | 12.78° C | 94% | 1014.2 hPa | - | - | - | - |
| 1777940256 | 13.33° C | 95% | 1014.2 hPa | - | - | - | - |
| 1777939356 | 13.33° C | 95% | 1014.3 hPa | - | - | - | - |
| 1777938456 | 13.89° C | 94% | 1014.3 hPa | - | - | - | - |
| 1777937556 | 13.33° C | 96% | 1014.2 hPa | - | - | - | - |
| 1777936656 | 13.89° C | 94% | 1014.1 hPa | - | - | - | - |
| 1777935756 | 13.89° C | 92% | 1014 hPa | - | - | - | - |
| 1777934856 | 13.89° C | 87% | 1014.1 hPa | - | - | - | - |
| 1777933956 | 14.44° C | 82% | 1014 hPa | - | - | - | - |
| 1777933056 | 14.44° C | 83% | 1014 hPa | - | - | - | - |
| 1777932155 | 14.44° C | 87% | 1013.7 hPa | - | - | - | - |
| 1777931255 | 13.89° C | 94% | 1013.7 hPa | - | - | - | - |
| 1777930355 | 14.44° C | 99% | 1014 hPa | - | - | - | - |
| 1777929455 | 13.89° C | 100% | 1014.2 hPa | - | - | - | - |
| 1777928555 | 14.44° C | 100% | 1014.2 hPa | - | - | - | - |
| 1777927655 | 14.44° C | 100% | 1014.4 hPa | - | - | - | - |
| 1777926755 | 14.44° C | 100% | 1014.8 hPa | - | - | - | - |
| 1777925855 | 15° C | 100% | 1014.6 hPa | - | - | - | - |
| 1777924954 | 15.56° C | 100% | 1014.2 hPa | - | - | - | - |
* Rain since midnight (hover to see other rain measurements)
** Current wind speed in m/s (hover to see current wind gust speed)